Fort Knox, KY

12:33 AM EDT on April 28, 2017 (GMT -0400)
Godman Army Air Field

Weather History for KFTK - October, 2013

Change the Weather History Date:

Friday, October 25, 2013

  Actual Average Record
Temperature  
Mean Temperature 36 °F -  
Max Temperature 48 °F 64 °F 79 °F (2012)
Min Temperature 24 °F 43 °F 24 °F (2013)
Degree Days  
Heating Degree Days 29    
Moisture  
Dew Point 26 °F    
Average Humidity 72    
Maximum Humidity 95    
Minimum Humidity 40    
Precipitation  
Precipitation 0.00 in - - ()
Sea Level Pressure  
Sea Level Pressure 30.42 in    
Wind  
Wind Speed 1 mph (West)    
Max Wind Speed 10 mph    
Max Gust Speed -    
Visibility 10 miles    
Events Rain    
Averages and records for this station are not official NWS values.
T = Trace of Precipitation, MM = Missing Value Source: NWS Daily Summary

Daily Weather History Graph

Daily Weather History Graph

Search for Another Location

Airport or City:

Trip Planner

Search our weather history database for the weather conditions in past years. The results will help you decide how hot, cold, wet, or windy it might be!

Date:

Astronomy

Oct. 25, 2013 Rise Set
Actual Time 8:02 AM EDT 6:52 PM EDT
Civil Twilight 7:35 AM EDT 7:19 PM EDT
Nautical Twilight 7:04 AM EDT 7:50 PM EDT
Astronomical Twilight 6:34 AM EDT 8:20 PM EDT
Moon No Moon Rise 1:40 PM EDT (10/25)
Length of Visible Light 11h 44m
Length of Day
10h 50m
Waning Gibbous, 62% of the Moon is Illuminated
Oct 25
Waning Gibbous
Oct 26
Last Quarter
Nov 3
New
Nov 10
First Quarter
Nov 17
Full

Hourly Weather History & Observations

Time (EDT) Temp. Windchill Dew Point Humidity Pressure Visibility Wind Dir Wind Speed Gust Speed Precip Events Conditions
12:58 AM 30.6 °F - 26.6 °F 85% 30.36 in 10.0 mi Calm Calm - N/A   Clear
1:58 AM 28.0 °F - 26.4 °F 94% 30.37 in 10.0 mi Calm Calm - N/A   Clear
2:58 AM 27.0 °F - 25.2 °F 93% 30.38 in 10.0 mi Calm Calm - N/A   Clear
3:58 AM 25.5 °F - 24.3 °F 95% 30.39 in 10.0 mi Calm Calm - N/A   Clear
4:58 AM 25.3 °F 17.6 °F 23.5 °F 93% 30.40 in 10.0 mi West 6.9 mph - N/A   Clear
5:58 AM 25.7 °F 21.5 °F 23.7 °F 92% 30.43 in 10.0 mi WNW 3.5 mph - N/A   Clear
6:58 AM 24.8 °F - 23.2 °F 94% 30.45 in 10.0 mi Calm Calm - N/A   Clear
7:58 AM 25.7 °F - 24.1 °F 94% 30.46 in 9.0 mi Calm Calm - N/A   Clear
8:58 AM 28.4 °F - 26.8 °F 94% 30.48 in 10.0 mi Calm Calm - N/A   Clear
9:58 AM 34.0 °F - 30.4 °F 87% 30.51 in 10.0 mi West 2.3 mph - N/A   Clear
10:58 AM 38.5 °F 35.0 °F 28.9 °F 69% 30.51 in 10.0 mi West 4.6 mph - N/A   Clear
11:58 AM 42.4 °F - 26.1 °F 52% 30.51 in 10.0 mi Variable 1.2 mph - N/A   Partly Cloudy
12:58 PM 44.1 °F - 25.2 °F 47% 30.49 in 10.0 mi Variable 2.3 mph - N/A   Clear
1:58 PM 45.1 °F 39.9 °F 24.6 °F 45% 30.47 in 10.0 mi WNW 10.4 mph - N/A   Partly Cloudy
2:58 PM 47.1 °F - 25.2 °F 42% 30.44 in 10.0 mi Calm Calm - N/A   Partly Cloudy
3:13 PM 46.4 °F 44.3 °F 24.8 °F 43% 30.41 in 10.0 mi Variable 4.6 mph - N/A Rain Light Rain
3:19 PM 46.4 °F - 24.8 °F 43% 30.41 in 10.0 mi Calm Calm - N/A   Clear
3:58 PM 48.6 °F - 25.9 °F 41% 30.43 in 10.0 mi West 6.9 mph - N/A   Mostly Cloudy
4:58 PM 47.8 °F - 24.8 °F 41% 30.41 in 10.0 mi Calm Calm - N/A   Partly Cloudy
5:58 PM 46.8 °F - 23.4 °F 40% 30.40 in 10.0 mi WSW 2.3 mph - N/A   Clear
6:58 PM 41.7 °F - 27.5 °F 57% 30.39 in 10.0 mi WSW 1.2 mph - N/A   Clear
7:58 PM 36.3 °F - 30.0 °F 78% 30.39 in 10.0 mi Calm Calm - N/A   Clear
8:58 PM 33.6 °F - 29.8 °F 86% 30.39 in 10.0 mi Calm Calm - N/A   Clear
9:58 PM 33.3 °F - 28.9 °F 84% 30.37 in 10.0 mi Calm Calm - N/A   Clear
10:58 PM 32.0 °F - 28.0 °F 85% 30.37 in 10.0 mi Calm Calm - N/A   Clear
11:58 PM 31.6 °F - 28.0 °F 87% 30.34 in 10.0 mi Calm Calm - N/A   Clear